Location: Dal�� Lhota
(48.7500°N, 14.0167°E)
Time: 07:41:32
(UTC+00:00)

Transit 2A - Pass Details

Date: 30 July 2021
Orbit: 594 x 964 km, 66.7° (Epoch: 24 September)

Event Time Altitude Azimuth Distance (km) Brightness Sun altitude
Rises 15:03:20 0° 318° (NW) 3,236 9.6 34.5°
Reaches altitude 10° 15:05:46 10° 311° (NW) 2,365 9.1 34.1°
Maximum altitude 15:10:46 38° 245° (WSW) 1,277 9.3 33.3°
Drops below altitude 10° 15:16:12 10° 179° (S) 2,569 8.9 32.4°
Sets 15:18:58 0° 172° (S) 3,550 9.5 31.9°
